Regional Weather Roundup
Issued by NWS

Home | Current Version | Previous Version | Text Only | Print | Product List | Glossary On
Versions: 1 2 3 4 5 6 7 8 9 10 11 12 13 14 15 16 17 18 19 20 21 22 23 24 25 26 27 28 29 30 31 32 33 34 35 36 37 38 39 40 41 42 43 44 45 46 47 48 49 50
000
ASUS43 KOAX 272102
RWRNE

WEATHER ROUNDUP FOR NEBRASKA
NATIONAL WEATHER SERVICE OMAHA NE
300 PM CST SAT DEC 27 2014

NOTES: SATELLITE DATA IS BEING USED TO AUGMENT CLOUD COVER ABOVE
       12000 FEET.
       "FAIR" INDICATES FEW OR NO CLOUDS BELOW 12,000 FEET WITH NO
       SIGNIFICANT WEATHER AND/OR OBSTRUCTIONS TO VISIBILITY.

  * THESE STATIONS DO NOT REPORT WEATHER SUCH AS RAIN...SNOW OR FOG.

NEZ001>004-019>022-054>056-272200-
NEBRASKA PANHANDLE

CITY           SKY/WX    TMP DP  RH WIND       PRES   REMARKS
SCOTTSBLUFF    SUNNY     17   9  70 NW7       30.08F WCI   8
ALLIANCE       SUNNY     20  11  68 W15       30.06F WCI   6
CHADRON        SUNNY     25  13  60 W8        30.08F WCI  16
SIDNEY         SUNNY     18   9  68 SW9       30.10F WCI   7
$$

NEZ057>060-069>072-079>082-272200-
SOUTHWEST NEBRASKA

CITY           SKY/WX    TMP DP  RH WIND       PRES   REMARKS
NORTH PLATTE   SUNNY     22  13  68 W8        30.15F WCI  12
IMPERIAL       SUNNY     27  14  58 W9        30.16S WCI  18
MCCOOK         SUNNY     25  15  66 W8        30.20S WCI  16
$$

NEZ005>010-023>029-035>040-094-272200-
NORTH CENTRAL NEBRASKA

CITY           SKY/WX    TMP DP  RH WIND       PRES   REMARKS
VALENTINE      SUNNY     23  14  68 SW8       30.10F WCI  14
AINSWORTH      SUNNY     23  15  71 W7        30.11S WCI  15
BROKEN BOW     SUNNY     24  15  68 W8        30.15F WCI  15
ORD            SUNNY     24  16  71 W7        30.16F WCI  16
$$

NEZ041-046>049-061>064-073>077-083>087-272200-
SOUTH CENTRAL NEBRASKA

CITY           SKY/WX    TMP DP  RH WIND       PRES   REMARKS
GRAND ISLAND   SUNNY     25  15  66 W9        30.21F WCI  15
HASTINGS       SUNNY     25  15  66 W10       30.20S WCI  15
KEARNEY *      SUNNY     25  16  68 W8        30.19F WCI  16
$$

NEZ011>018-030>034-042>045-272200-
NORTHEAST NEBRASKA

CITY           SKY/WX    TMP DP  RH WIND       PRES   REMARKS
NORFOLK        SUNNY     22  14  71 W6        30.18S WCI  14
BLAIR          SUNNY     25  16  69 W9        30.20F WCI  15
COLUMBUS *     SUNNY     23  10  58 W8        30.22F WCI  14
TEKAMAH        SUNNY     24  14  65 W8        30.23S WCI  15
$$

NEZ050>053-065>068-078-088>093-272200-
SOUTHEAST NEBRASKA

CITY           SKY/WX    TMP DP  RH WIND       PRES   REMARKS
LINCOLN        SUNNY     28  18  66 NW9       30.25S WCI  19
OMAHA EPPLEY   MOSUNNY   27  17  66 W8        30.24S WCI  19
FALLS CITY     MOSUNNY   30  19  63 NW10G18   30.24R WCI  21
$$

NEZ044-045-051>053-067-272200-
OMAHA AREA

CITY           SKY/WX    TMP DP  RH WIND       PRES   REMARKS
OMAHA EPPLEY   MOSUNNY   27  17  66 W8        30.24S WCI  19
BLAIR          SUNNY     25  16  69 W9        30.20F WCI  15
OFFUTT AFB     SUNNY     28  18  66 NW8       30.22R WCI  20
$$



USA.gov is the U.S. government's official web portal to all federal, state and local government web resources and services.